[[{"header":{"parameterUnit":"m.s-1","parameterCategory":2,"la1":30.2991,"la2":30.254,"lo1":-89.0895,"lo2":-89.0444,"dy":0.0017,"dx":0.0017,"nx":28,"ny":28,"refTime":"2025-07-29T09:00:00:Z","depth":"0","parameterNumber":2,"parameterNumberName":"U-component_of_CURRENTS"},"data":[0,0,0,0,0,0,0,0,0,0,0,0,0,0,0,0,0,0,0,0,0,0,0,0,0,0,0,0,0,0,0,0,0,0,0,0,0,0,0,0,0,0,0,0,0,0,0,0,0,0,0,0,0,0,0,0,0,0,0.2107,0.2108,0,0.2129,0.2128,0.2128,0.2101,0.2101,0.21,0.2099,0.2099,0.2099,0.21,0,0,0,0,0,0,0,0,0,0,0,0,0,0.2037,0.2038,0.2107,0.2108,0.2109,0.2129,0.2128,0.2128,0.2101,0.2101,0.21,0.2099,0.2098,0.2099,0.21,0,0,0,0,0,0,0,0,0,0,0,0,0,0.2059,0.2038,0.2107,0.2101,0.2101,0.2129,0.2128,0.2128,0.2102,0.2101,0.21,0.2099,0.2098,0.2099,0.21,0.2123,0,0,0.2102,0.2103,0,0,0,0,0,0,0,0,0.2058,0.2061,0.2101,0.2101,0.2101,0.2115,0.2103,0.2127,0.2102,0.2097,0.2099,0.2098,0.2106,0.2106,0.2106,0.2122,0.2122,0.2102,0.2103,0.2103,0.2103,0,0,0,0,0,0,0,0.2057,0.206,0.2111,0.2102,0.2102,0.2095,0.2097,0.2107,0.2102,0.2097,0.2096,0.2106,0.2105,0.2105,0.2106,0.2122,0.2102,0.2103,0.2103,0.2104,0.2208,0.221,0,0,0,0,0,0,0.2064,0.2059,0.2111,0.2112,0.2082,0.2097,0.2099,0.2108,0.2102,0.2102,0.2106,0.2104,0.2104,0.2105,0.2106,0.2139,0.2103,0.2104,0.2104,0.2206,0.2208,0.2211,0,0,0,0,0,0,0.2063,0.2069,0.211,0.2089,0.2095,0.21,0.211,0.2109,0.2108,0.2111,0.2109,0.2106,0.2104,0.2104,0.2124,0.2138,0.2104,0.2105,0.2203,0.2206,0.221,0.2202,0,0,0,0,0,0,0.206,0.2068,0.2075,0.209,0.2096,0.2129,0.2111,0.211,0.2117,0.2114,0.211,0.2109,0.2103,0.2123,0.2124,0.2139,0.2105,0.22,0.2204,0.2208,0.2199,0.2204,0.2209,0,0,0,0,0,0.2058,0.2087,0.2075,0.2082,0.2107,0.213,0.2132,0.2129,0.2118,0.2122,0.2125,0.2109,0.2152,0.2125,0.2126,0.2141,0.2198,0.2203,0.2208,0.2197,0.2203,0.2209,0,0,0,0,0,0,0.2071,0.2088,0.2075,0.2109,0.2114,0.2127,0.214,0.2133,0.2137,0.2135,0.2127,0.2127,0.215,0.2161,0.2131,0.2192,0.2178,0.2183,0.2168,0.2175,0.218,0.2184,0.2106,0,0,0,0,0,0.2075,0.2093,0.2102,0.2127,0.2131,0.213,0.2139,0.2137,0.2146,0.2146,0.2142,0.2156,0.2176,0.2184,0.22,0.2228,0.2253,0.2248,0.2253,0.2256,0.2267,0.2333,0.2344,0.2228,0.2228,0.2228,0,0,0.2088,0.21,0.211,0.213,0.2132,0.2139,0.2132,0.2152,0.2157,0.2148,0.2155,0.2166,0.2189,0.2217,0.223,0.2223,0.2302,0.2263,0.2265,0.2274,0.2339,0.235,0.236,0.2231,0.2231,0.223,0,0,0.212,0.213,0.2145,0.2147,0.2158,0.2158,0.2163,0.217,0.2171,0.2187,0.2187,0.2214,0.2232,0.2255,0.2269,0.232,0.2323,0.2327,0.2353,0.2416,0.2425,0.2434,0.2466,0.2478,0.2332,0.2332,0.2332,0,0.2125,0.2147,0.2154,0.2162,0.2166,0.2164,0.2171,0.2179,0.2191,0.2201,0.2192,0.2242,0.2255,0.23,0.2321,0.2328,0.2356,0.2315,0.2419,0.2428,0.2437,0.2469,0.2482,0.2333,0.2333,0.2333,0.2333,0,0.2162,0.2167,0.2182,0.218,0.2186,0.22,0.2204,0.2213,0.2213,0.2221,0.226,0.2284,0.2315,0.2331,0.2338,0.2411,0.2406,0.2409,0.2393,0.2448,0.2478,0.2492,0.2333,0.2333,0.2333,0.2333,0,0,0.2193,0.2201,0.22,0.219,0.2194,0.2202,0.2218,0.2234,0.2247,0.2267,0.2292,0.2342,0.2352,0.2374,0.239,0.2451,0.2531,0.246,0.2463,0.2472,0.2655,0.2566,0.2572,0.255,0.2553,0.2555,0.2644,0,0.2207,0.222,0.2222,0.222,0.2222,0.222,0.2232,0.2248,0.2264,0.2288,0.2332,0.236,0.2369,0.2385,0.2448,0.2508,0.257,0.2506,0.2619,0.2622,0.252,0.2586,0.2432,0.2492,0.2657,0.266,0.2661,0,0.2234,0.2235,0.224,0.2229,0.2229,0.223,0.2243,0.2253,0.2292,0.2307,0.2347,0.2371,0.2448,0.2453,0.2587,0.2544,0.2608,0.2658,0.2662,0.2593,0.2559,0.2471,0.251,0.2391,0.2682,0.268,0.2679,0,0.2249,0.2245,0.2247,0.2244,0.2238,0.2241,0.2238,0.2263,0.2273,0.2321,0.2335,0.2415,0.2451,0.2554,0.2628,0.2626,0.277,0.2776,0.2758,0.2751,0.265,0.2629,0.2571,0.2896,0.2896,0.2896,0.2896,0,0.2266,0.2264,0.2252,0.225,0.2247,0.2242,0.2248,0.2259,0.2283,0.2298,0.2342,0.2374,0.2485,0.256,0.2645,0.2721,0.2782,0.2777,0.278,0.2641,0.262,0.2535,0.2482,0.2899,0.2898,0.2898,0.2897,0,0.2281,0.2278,0.2272,0.2259,0.2254,0.225,0.2236,0.2239,0.2263,0.2286,0.23,0.2365,0.2451,0.2536,0.269,0.2722,0.2719,0.2832,0.2638,0.2615,0.2475,0.2428,0.2361,0.2316,0.2842,0.284,0.2839,0,0.2287,0.2289,0.2273,0.2256,0.2246,0.2236,0.2223,0.2232,0.2232,0.2278,0.2289,0.2363,0.241,0.2555,0.2614,0.2715,0.2653,0.2631,0.2608,0.2451,0.2403,0.2336,0.2301,0.2474,0.247,0.2467,0.2464,0,0.2277,0.2277,0.2263,0.224,0.222,0.2202,0.2187,0.2189,0.2202,0.2217,0.2247,0.2291,0.2385,0.2392,0.248,0.2538,0.2445,0.2564,0.2469,0.2164,0.2025,0.1986,0.2414,0.2434,0.2437,0.2439,0.2441,0.2442,0.2253,0.2241,0.2218,0.2194,0.2173,0.215,0.2126,0.2124,0.2119,0.2111,0.218,0.2189,0.2181,0.2276,0.2303,0.2182,0.2269,0.213,0.2104,0.2068,0.1952,0.2291,0.2266,0.2268,0.227,0.2271,0.2273,0,0.2189,0.2179,0.2162,0.2117,0.2078,0.2092,0.2074,0.2041,0.2017,0.203,0.2032,0.1967,0.1918,0.1909,0.18,0.1722,0.171,0.1664,0.1534,0.1546,0.1899,0.1806,0.1596,0.1596,0.1596,0.1597,0.1597,0.1597,0.2144,0.2106,0.2103,0.202,0.1995,0.1924,0.191,0.1883,0.1877,0.1787,0.173,0.1724,0.1633,0.1442,0.1281,0.1278,0.12,0.1121,0.1194,0.1404,0.1445,0.1484,0.1384,0.1089,0.1089,0.078,0.0777,0.0775]},{"header":{"parameterUnit":"m.s-1","parameterCategory":2,"la1":30.2991,"la2":30.254,"lo1":-89.0895,"lo2":-89.0444,"dy":0.0017,"dx":0.0017,"nx":28,"ny":28,"refTime":"2025-07-29T09:00:00:Z","depth":"0","parameterNumber":3,"parameterNumberName":"V-component_of_CURRENTS"},"data":[0,0,0,0,0,0,0,0,0,0,0,0,0,0,0,0,0,0,0,0,0,0,0,0,0,0,0,0,0,0,0,0,0,0,0,0,0,0,0,0,0,0,0,0,0,0,0,0,0,0,0,0,0,0,0,0,0,0,-0.0146,-0.0146,0,-0.0106,-0.0106,-0.0105,-0.0104,-0.0105,-0.0106,-0.0106,-0.0072,-0.0071,-0.0069,0,0,0,0,0,0,0,0,0,0,0,0,0,-0.0178,-0.0178,-0.0146,-0.0146,-0.0145,-0.0106,-0.0106,-0.0105,-0.0104,-0.0105,-0.0106,-0.0106,-0.0073,-0.0071,-0.0069,0,0,0,0,0,0,0,0,0,0,0,0,0,-0.0153,-0.0178,-0.0146,-0.0141,-0.014,-0.0107,-0.0106,-0.0105,-0.0104,-0.0105,-0.0106,-0.0107,-0.0073,-0.0071,-0.0069,-0.0038,0,0,-0.0062,-0.0061,0,0,0,0,0,0,0,0,-0.0155,-0.0152,-0.0142,-0.0141,-0.014,-0.0112,-0.0105,-0.0083,-0.0104,-0.0117,-0.0106,-0.0107,-0.0086,-0.0083,-0.0072,-0.0037,-0.0035,-0.0062,-0.0061,-0.006,-0.0059,0,0,0,0,0,0,0,-0.0156,-0.0153,-0.0129,-0.0142,-0.014,-0.0126,-0.0123,-0.01,-0.0096,-0.0116,-0.0116,-0.0113,-0.0086,-0.0074,-0.0071,-0.0035,-0.0062,-0.006,-0.0059,-0.0058,0.0039,0.004,0,0,0,0,0,0,-0.0164,-0.0155,-0.0131,-0.0128,-0.0151,-0.0125,-0.0122,-0.0119,-0.0096,-0.0094,-0.0112,-0.0113,-0.0077,-0.0074,-0.007,-0.0013,-0.006,-0.0058,-0.0057,0.0038,0.0039,0.0041,0,0,0,0,0,0,-0.0165,-0.0163,-0.0132,-0.0142,-0.0137,-0.0124,-0.012,-0.0118,-0.0109,-0.0094,-0.0091,-0.0106,-0.0078,-0.0073,-0.004,-0.0012,-0.0057,-0.0055,0.0036,0.0038,0.004,0.009,0,0,0,0,0,0,-0.0166,-0.0163,-0.0164,-0.0142,-0.0137,-0.0109,-0.012,-0.0117,-0.0106,-0.0107,-0.0087,-0.0085,-0.0078,-0.0043,-0.0038,-0.001,-0.0053,0.0035,0.0037,0.0039,0.0087,0.0093,0.0099,0,0,0,0,0,-0.0168,-0.017,-0.0164,-0.0161,-0.0138,-0.0109,-0.0104,-0.0097,-0.0105,-0.0094,-0.0077,-0.0086,-0.0025,-0.004,-0.0034,-0.0005,0.0033,0.0036,0.0039,0.0084,0.0092,0.0099,0,0,0,0,0,0,-0.0182,-0.0169,-0.0163,-0.016,-0.0133,-0.0109,-0.0103,-0.0095,-0.0073,-0.0076,-0.0065,-0.006,-0.0024,-0.002,-0.0037,0.0029,0.0002,0.0006,0.0034,0.0042,0.0048,0.0063,-0.0051,0,0,0,0,0,-0.0185,-0.0187,-0.0159,-0.0156,-0.0144,-0.0121,-0.011,-0.01,-0.0078,-0.007,-0.0051,-0.0032,-0.0005,0.0012,0.0031,0.0074,0.0074,0.0094,0.0101,0.0106,0.0122,0.0152,0.0163,0.005,0.005,0.005,0,0,-0.0191,-0.0184,-0.0184,-0.016,-0.0142,-0.0107,-0.0117,-0.0096,-0.0061,-0.0068,-0.0021,-0.0011,0.0009,0.0054,0.0071,0.0061,0.0134,0.011,0.0114,0.0128,0.0157,0.0168,0.0177,0.0052,0.0052,0.0051,0,0,-0.0193,-0.0193,-0.0186,-0.0159,-0.013,-0.0107,-0.01,-0.0064,-0.0045,0.0004,0.0006,0.004,0.0078,0.0108,0.0125,0.0179,0.0161,0.0175,0.0228,0.0257,0.0266,0.0275,0.0271,0.0279,0.0184,0.0184,0.0184,0,-0.0199,-0.018,-0.0176,-0.015,-0.0122,-0.0104,-0.0066,-0.0037,0.0008,0.0038,0.0024,0.0101,0.0112,0.018,0.0198,0.0196,0.0193,0.0197,0.0265,0.0273,0.0281,0.0276,0.0284,0.0187,0.0187,0.0186,0.0186,0,-0.0179,-0.0159,-0.0151,-0.0109,-0.0078,-0.0047,0.0,0.0036,0.006,0.0095,0.016,0.0183,0.023,0.0238,0.0237,0.0303,0.0274,0.0263,0.0245,0.0296,0.0287,0.0294,0.0191,0.019,0.0189,0.0188,0,0,-0.0193,-0.0147,-0.014,-0.0106,-0.0051,-0.0019,0.0041,0.0112,0.016,0.0202,0.027,0.0319,0.0325,0.0345,0.0347,0.0379,0.0422,0.0347,0.0348,0.0343,0.0462,0.0436,0.0441,0.0418,0.042,0.0422,0.0426,0,-0.017,-0.0119,-0.0097,-0.0028,0.0012,0.0055,0.0114,0.0177,0.0226,0.0295,0.0333,0.0387,0.0367,0.0387,0.042,0.0426,0.0447,0.0421,0.0416,0.0416,0.0386,0.0452,0.0483,0.049,0.0434,0.0435,0.0436,0,-0.014,-0.0111,-0.0049,0.0027,0.0049,0.0093,0.0192,0.0248,0.0339,0.0377,0.0437,0.0458,0.0522,0.0486,0.0534,0.0513,0.0495,0.0491,0.0491,0.046,0.0406,0.0435,0.0506,0.048,0.0447,0.0446,0.0445,0,-0.0132,-0.0067,-0.0018,0.0009,0.0092,0.0132,0.018,0.0272,0.0332,0.0424,0.0471,0.0538,0.0573,0.0582,0.0572,0.0554,0.0607,0.0577,0.0535,0.0531,0.0556,0.0552,0.0606,0.0608,0.0608,0.0608,0.0608,0,-0.0101,-0.0058,-0.0015,0.0019,0.0089,0.0139,0.0226,0.0286,0.0376,0.0456,0.0504,0.0572,0.0599,0.0628,0.0604,0.0599,0.0629,0.0564,0.0548,0.0571,0.0568,0.0543,0.0515,0.0608,0.0608,0.0608,0.0608,0,-0.0082,-0.0058,0.0004,0.0074,0.0096,0.0148,0.0241,0.0306,0.038,0.0483,0.0512,0.0607,0.0649,0.0655,0.0673,0.0639,0.0631,0.0611,0.062,0.0606,0.0538,0.0511,0.0538,0.0582,0.0579,0.0578,0.0578,0,-0.006,-0.0031,0.0034,0.0066,0.0097,0.0167,0.0223,0.0304,0.0372,0.0506,0.0558,0.0631,0.07,0.0715,0.0686,0.0653,0.0628,0.0628,0.0611,0.0562,0.0521,0.0495,0.053,0.0653,0.0654,0.0654,0.0654,0,-0.0013,-0.0001,0.0042,0.0095,0.0146,0.0212,0.0288,0.0337,0.0442,0.0522,0.0632,0.0695,0.0735,0.0751,0.0703,0.0675,0.0639,0.063,0.0603,0.0614,0.0571,0.0596,0.059,0.0657,0.0656,0.0656,0.0656,0.0656,0.002,0.0049,0.0089,0.014,0.0193,0.0256,0.03,0.0381,0.0476,0.0597,0.0658,0.0762,0.0783,0.0747,0.0714,0.0653,0.0642,0.0616,0.0594,0.0576,0.0617,0.0595,0.0625,0.0625,0.0625,0.0624,0.0624,0,0.0067,0.0089,0.0136,0.0192,0.0237,0.0261,0.0348,0.039,0.048,0.0611,0.0698,0.0798,0.0787,0.077,0.0687,0.0628,0.0649,0.0591,0.0586,0.0632,0.0641,0.0642,0.065,0.065,0.065,0.065,0.065,0.065,0.0097,0.0139,0.0152,0.022,0.025,0.0303,0.0339,0.0408,0.05,0.0645,0.075,0.0829,0.0848,0.0669,0.0591,0.0584,0.0588,0.0543,0.0555,0.0556,0.0557,0.0558,0.0555,0.0544,0.0544,0.0597,0.0597,0.0597]}],[{"header":{"parameterUnit":"m.s-1","parameterCategory":2,"la1":30.2991,"la2":30.254,"lo1":-89.0895,"lo2":-89.0444,"dy":0.0017,"dx":0.0017,"nx":28,"ny":28,"refTime":"2025-07-29T09:00:00:Z","depth":"2","parameterNumber":2,"parameterNumberName":"U-component_of_CURRENTS"},"data":[0,0,0,0,0,0,0,0,0,0,0,0,0,0,0,0,0,0,0,0,0,0,0,0,0,0,0,0,0,0,0,0,0,0,0,0,0,0,0,0,0,0,0,0,0,0,0,0,0,0,0,0,0,0,0,0,0,0,0.0079,0.0078,0,0.0071,0.0072,0.0073,0.0298,0.0303,0.0308,0.0313,0.0546,0.0547,0.0549,0,0,0,0,0,0,0,0,0,0,0,0,0,0.026,0.0256,0.0079,0.0078,0.0077,0.0071,0.0072,0.0073,0.0298,0.0303,0.0309,0.0315,0.0545,0.0547,0.0549,0,0,0,0,0,0,0,0,0,0,0,0,0,0.0222,0.0255,0.0079,0.0178,0.0186,0.0071,0.0072,0.0074,0.0296,0.0304,0.0311,0.0318,0.0544,0.0547,0.0549,0.0421,0,0,0.0557,0.0558,0,0,0,0,0,0,0,0,0.0224,0.0217,0.0165,0.0171,0.0179,0.0182,0.022,0.0197,0.0295,0.0268,0.0313,0.0321,0.0432,0.0444,0.0442,0.0432,0.0442,0.0558,0.0559,0.056,0.0561,0,0,0,0,0,0,0,0.0226,0.0218,0.009,0.0162,0.0171,0.0212,0.0216,0.0217,0.0325,0.0271,0.0284,0.026,0.0441,0.0439,0.045,0.0445,0.0557,0.056,0.0561,0.0562,0.0667,0.0668,0,0,0,0,0,0,0.0193,0.0219,0.009,0.0088,0.0205,0.0202,0.0207,0.0184,0.032,0.0341,0.0254,0.027,0.0431,0.0447,0.0459,0.0578,0.056,0.0563,0.0564,0.0665,0.0667,0.0668,0,0,0,0,0,0,0.0197,0.0181,0.009,0.0144,0.0134,0.019,0.0163,0.018,0.024,0.0301,0.0333,0.0303,0.0437,0.0456,0.0542,0.058,0.0564,0.0566,0.0664,0.0666,0.0668,0.0648,0,0,0,0,0,0,0.0202,0.0183,0.018,0.0141,0.0129,0.0092,0.0155,0.0174,0.0204,0.0228,0.035,0.0377,0.0444,0.0538,0.0544,0.0583,0.0568,0.0662,0.0665,0.0667,0.0647,0.0649,0.065,0,0,0,0,0,0.0208,0.0165,0.0179,0.0164,0.0115,0.0091,0.0093,0.0164,0.0199,0.0243,0.0328,0.0376,0.0559,0.0539,0.0547,0.0588,0.0661,0.0664,0.0667,0.0646,0.0648,0.065,0,0,0,0,0,0,0.028,0.018,0.0198,0.0141,0.0148,0.0127,0.0137,0.0163,0.0249,0.029,0.0365,0.0397,0.0492,0.0525,0.0501,0.0628,0.0625,0.063,0.0607,0.061,0.0611,0.0638,0.057,0,0,0,0,0,0.027,0.0196,0.0163,0.0125,0.0122,0.0128,0.0128,0.0176,0.0216,0.0264,0.0347,0.043,0.0485,0.0542,0.0602,0.0637,0.0672,0.0679,0.068,0.0681,0.0711,0.0777,0.0787,0.0677,0.0677,0.0677,0,0,0.0269,0.0215,0.0172,0.0131,0.0132,0.0138,0.0155,0.0164,0.0204,0.0265,0.0375,0.043,0.0494,0.0575,0.062,0.0624,0.0725,0.0685,0.0685,0.0715,0.0781,0.0792,0.0801,0.0679,0.0679,0.0679,0,0,0.0239,0.0205,0.0152,0.0156,0.015,0.0155,0.0162,0.0183,0.0249,0.031,0.0377,0.0463,0.0544,0.0617,0.0649,0.068,0.0723,0.0701,0.0742,0.0804,0.0813,0.0822,0.085,0.0862,0.0712,0.0712,0.0712,0,0.0261,0.0201,0.0148,0.014,0.0148,0.0165,0.0181,0.0211,0.0279,0.0331,0.0375,0.0517,0.0569,0.0653,0.0687,0.0687,0.0719,0.0722,0.0805,0.0815,0.0825,0.0851,0.0865,0.0712,0.0712,0.0712,0.0712,0,0.0216,0.0198,0.0175,0.016,0.0172,0.0182,0.0209,0.0271,0.033,0.0378,0.05,0.0569,0.0676,0.0687,0.0698,0.079,0.0786,0.0786,0.0795,0.0835,0.086,0.0874,0.0711,0.0711,0.0711,0.0711,0,0,0.0217,0.0146,0.0161,0.0177,0.0194,0.0205,0.0257,0.0321,0.039,0.0482,0.0583,0.0666,0.0727,0.0768,0.0797,0.085,0.0919,0.0854,0.0858,0.0873,0.1042,0.0897,0.0899,0.0935,0.0938,0.094,0.102,0,0.0232,0.0199,0.0174,0.0213,0.0217,0.0256,0.0308,0.0379,0.0458,0.0569,0.0644,0.0754,0.0746,0.0816,0.0863,0.0919,0.0962,0.0897,0.1011,0.1015,0.0875,0.0913,0.083,0.0883,0.1034,0.1036,0.1038,0,0.0246,0.022,0.0233,0.0251,0.0265,0.0318,0.0431,0.0472,0.0595,0.0666,0.0777,0.084,0.0947,0.093,0.1049,0.1011,0.1035,0.1058,0.1062,0.0954,0.0897,0.0877,0.0903,0.1062,0.106,0.1058,0.1056,0,0.0303,0.0286,0.0298,0.0308,0.0328,0.0396,0.0438,0.0545,0.061,0.0753,0.0838,0.0951,0.1048,0.1099,0.1149,0.1117,0.1263,0.1221,0.1107,0.1096,0.1063,0.1043,0.1303,0.1303,0.1303,0.1303,0.1303,0,0.0329,0.0358,0.0344,0.0368,0.0455,0.0455,0.0602,0.0643,0.0747,0.0838,0.0912,0.1009,0.1103,0.1185,0.1196,0.1198,0.1306,0.1129,0.1118,0.1047,0.1025,0.1218,0.1207,0.1306,0.1305,0.1304,0.1304,0,0.0395,0.0366,0.0407,0.0448,0.0487,0.0567,0.0694,0.0765,0.085,0.0969,0.1019,0.1107,0.1201,0.1256,0.1351,0.1257,0.1274,0.1246,0.1131,0.1101,0.1046,0.1034,0.1113,0.1108,0.1105,0.1102,0.1099,0,0.0406,0.0428,0.0498,0.0558,0.0601,0.0723,0.0794,0.0848,0.0896,0.1018,0.1046,0.1177,0.1226,0.1279,0.1229,0.121,0.1259,0.1037,0.0937,0.1052,0.1033,0.1026,0.1018,0.0893,0.0889,0.0886,0.0884,0,0.0461,0.0508,0.0533,0.0644,0.0737,0.0835,0.0921,0.0948,0.0986,0.1053,0.1104,0.1149,0.1199,0.1128,0.107,0.1027,0.1022,0.0958,0.1186,0.0914,0.084,0.0822,0.0824,0.0855,0.0858,0.086,0.0861,0.0862,0.0535,0.0565,0.0611,0.0741,0.0823,0.0899,0.0955,0.0975,0.1008,0.1026,0.108,0.1073,0.0967,0.0834,0.0822,0.0815,0.0839,0.0725,0.0739,0.0756,0.0676,0.0595,0.0549,0.055,0.0551,0.0552,0.0553,0,0.0605,0.0633,0.0709,0.081,0.0892,0.0964,0.0991,0.0988,0.0971,0.0959,0.0994,0.0759,0.0678,0.0674,0.0619,0.0519,0.0569,0.048,0.0561,0.0585,0.0609,0.0527,0.0359,0.0359,0.0359,0.0359,0,0,0.0631,0.0676,0.07,0.0846,0.095,0.0998,0.1011,0.095,0.0893,0.0801,0.0737,0.0691,0.0596,0.0449,0.0402,0.0424,0.0523,0.0401,0.0545,0.0668,0.0693,0.0718,0.0613,0,0,0,0,0]},{"header":{"parameterUnit":"m.s-1","parameterCategory":2,"la1":30.2991,"la2":30.254,"lo1":-89.0895,"lo2":-89.0444,"dy":0.0017,"dx":0.0017,"nx":28,"ny":28,"refTime":"2025-07-29T09:00:00:Z","depth":"2","parameterNumber":3,"parameterNumberName":"V-component_of_CURRENTS"},"data":[0,0,0,0,0,0,0,0,0,0,0,0,0,0,0,0,0,0,0,0,0,0,0,0,0,0,0,0,0,0,0,0,0,0,0,0,0,0,0,0,0,0,0,0,0,0,0,0,0,0,0,0,0,0,0,0,0,0,0.0063,0.0064,0,0.0098,0.0098,0.0098,-0.0018,-0.0021,-0.0024,-0.0027,-0.0213,-0.0216,-0.0218,0,0,0,0,0,0,0,0,0,0,0,0,0,-0.0093,-0.009,0.0063,0.0064,0.0065,0.0098,0.0098,0.0098,-0.0017,-0.0021,-0.0025,-0.0028,-0.0213,-0.0215,-0.0218,0,0,0,0,0,0,0,0,0,0,0,0,0,-0.0043,-0.0089,0.0063,0.0016,0.0012,0.0098,0.0098,0.0097,-0.0017,-0.0021,-0.0026,-0.003,-0.0212,-0.0215,-0.0218,-0.0149,0,0,-0.0228,-0.023,0,0,0,0,0,0,0,0,-0.0046,-0.0038,0.0022,0.0019,0.0015,0.0036,-0.0026,0.0006,-0.0015,-0.0011,-0.0027,-0.0032,-0.0144,-0.0153,-0.0141,-0.0157,-0.0165,-0.0229,-0.0231,-0.0232,-0.0233,0,0,0,0,0,0,0,-0.0049,-0.004,0.0071,0.0023,0.0019,-0.0004,-0.0003,-0.002,-0.0061,-0.0012,-0.0019,-0.0005,-0.0149,-0.0137,-0.0147,-0.0168,-0.0228,-0.0231,-0.0233,-0.0235,-0.0273,-0.0272,0,0,0,0,0,0,-0.0037,-0.0043,0.007,0.0073,-0.0021,0.0003,0.0004,0.0029,-0.0056,-0.007,-0.0001,-0.0011,-0.0129,-0.0143,-0.0154,-0.0166,-0.0232,-0.0235,-0.0237,-0.0274,-0.0272,-0.0271,0,0,0,0,0,0,-0.0041,-0.0027,0.0069,0.0019,0.003,0.0011,0.004,0.0033,0.0008,-0.0045,-0.0065,-0.0023,-0.0133,-0.0149,-0.0193,-0.0172,-0.0236,-0.0239,-0.0275,-0.0273,-0.0272,-0.0135,0,0,0,0,0,0,-0.0045,-0.0028,-0.003,0.002,0.0033,0.0101,0.0045,0.0037,0.0028,0.0015,-0.0068,-0.0088,-0.0138,-0.0188,-0.0197,-0.0178,-0.0242,-0.0276,-0.0274,-0.0272,-0.0141,-0.0129,-0.0119,0,0,0,0,0,-0.0051,-0.0025,-0.003,-0.0017,0.004,0.0103,0.0107,0.0074,0.0031,0.0031,-0.0029,-0.0088,-0.0184,-0.0189,-0.0199,-0.0181,-0.0277,-0.0275,-0.0273,-0.0146,-0.0131,-0.0119,0,0,0,0,0,0,-0.0114,-0.0032,-0.0037,0.0004,0.0041,0.0084,0.0078,0.0074,0.0036,-0.0004,-0.0064,-0.0086,-0.0115,-0.0164,-0.0168,-0.019,-0.0243,-0.0243,-0.0143,-0.013,-0.012,-0.0124,-0.0245,0,0,0,0,0,-0.0115,-0.0072,-0.0008,0.0019,0.0036,0.0057,0.0068,0.0058,0.005,0.0027,-0.0016,-0.0075,-0.0099,-0.0133,-0.0167,-0.017,-0.0205,-0.0171,-0.016,-0.015,-0.0162,-0.0181,-0.0172,-0.0264,-0.0264,-0.0264,0,0,-0.0133,-0.0083,-0.0064,0.0009,0.0024,0.0066,0.0048,0.0068,0.009,0.0014,-0.0002,-0.0035,-0.0091,-0.0097,-0.0116,-0.0148,-0.0135,-0.0147,-0.0138,-0.0156,-0.0178,-0.0169,-0.0161,-0.0263,-0.0263,-0.0263,0,0,-0.0126,-0.0103,-0.0063,-0.0025,0.0018,0.0048,0.0055,0.0095,0.0086,0.0099,0.0048,0.0027,-0.0016,-0.0037,-0.0056,-0.0005,-0.007,-0.0025,0.0021,0.0005,0.0012,0.0018,0.0024,0.0029,-0.0026,-0.0026,-0.0026,0,-0.0163,-0.0094,-0.0048,-0.0005,0.002,0.0043,0.0078,0.0103,0.0121,0.0127,0.0089,0.0063,0.0018,0.0026,0.0039,0.0021,-0.0,-0.0017,0.0021,0.0026,0.0029,0.0033,0.0037,-0.0019,-0.002,-0.0021,-0.0021,0,-0.0117,-0.0078,-0.0056,0.0014,0.0048,0.0082,0.0134,0.0153,0.0151,0.0177,0.0182,0.015,0.0121,0.0126,0.0095,0.0111,0.0087,0.0048,-0.0006,0.0047,0.0048,0.005,-0.0009,-0.0012,-0.0014,-0.0015,0,0,-0.0177,-0.0044,-0.0051,-0.0013,0.0056,0.0094,0.014,0.0202,0.0223,0.0239,0.0267,0.0257,0.0235,0.021,0.0184,0.0177,0.0211,0.0124,0.012,0.0141,0.0188,0.0233,0.0238,0.0175,0.0176,0.0176,0.0192,0,-0.0172,-0.0073,-0.0016,0.0044,0.0095,0.0136,0.0182,0.0231,0.0261,0.0296,0.0295,0.0296,0.0271,0.025,0.0251,0.0213,0.0214,0.0211,0.012,0.0118,0.0161,0.0241,0.0173,0.0186,0.0193,0.0194,0.0194,0,-0.017,-0.0095,-0.0021,0.0082,0.0099,0.0126,0.0189,0.0236,0.0301,0.0318,0.0336,0.0336,0.0347,0.0301,0.0282,0.0277,0.0236,0.0213,0.0212,0.0198,0.0165,0.0123,0.0188,0.0196,0.0196,0.0195,0.0195,0,-0.0228,-0.0114,-0.0052,-0.0021,0.01,0.011,0.0151,0.0219,0.0266,0.0313,0.0341,0.0361,0.0353,0.0322,0.0297,0.0274,0.0277,0.0233,0.0245,0.0248,0.0141,0.0135,0.0208,0.0208,0.0208,0.0207,0.0207,0,-0.0234,-0.0196,-0.0083,-0.0053,-0.0005,0.0067,0.0107,0.0156,0.0226,0.0294,0.0324,0.0378,0.035,0.0367,0.0323,0.0316,0.0295,0.0271,0.0259,0.0193,0.0192,0.0142,0.0134,0.0208,0.0208,0.0208,0.0208,0,-0.0292,-0.0215,-0.0146,-0.0047,-0.0026,-0.0008,0.0078,0.0137,0.0181,0.0267,0.0281,0.0377,0.0406,0.0403,0.0368,0.0352,0.033,0.0321,0.027,0.0253,0.0303,0.0302,0.0339,0.0341,0.0342,0.0343,0.0344,0,-0.0287,-0.026,-0.0172,-0.013,-0.0093,-0.0047,0.0013,0.0088,0.016,0.0285,0.0339,0.04,0.0484,0.0492,0.0444,0.0409,0.0379,0.0328,0.0275,0.0335,0.0319,0.0315,0.0312,0.0193,0.0193,0.0193,0.0193,0,-0.0289,-0.0288,-0.0225,-0.0151,-0.0099,-0.0012,0.0062,0.0109,0.0224,0.0313,0.045,0.0521,0.0539,0.0504,0.046,0.0424,0.0336,0.0326,0.0382,0.0189,0.0204,0.0186,0.0186,0.0191,0.0191,0.0191,0.0191,0.0191,-0.0312,-0.028,-0.0213,-0.0147,-0.0068,0.0031,0.008,0.019,0.0306,0.0452,0.0524,0.0615,0.0494,0.0453,0.0394,0.0349,0.0364,0.0294,0.0291,0.0289,0.0288,0.0306,0.0313,0.0314,0.0314,0.0315,0.0316,0,-0.0302,-0.0253,-0.0187,-0.0095,-0.0007,0.0025,0.015,0.0222,0.0358,0.0492,0.0613,0.0538,0.0477,0.0386,0.0302,0.0258,0.0221,0.024,0.0156,0.0158,0.016,0.0149,0.0138,0.0138,0.0138,0.0138,0,0,-0.0278,-0.0215,-0.0174,-0.0046,0.0013,0.0123,0.0186,0.0304,0.0404,0.0557,0.061,0.0613,0.0472,0.034,0.0237,0.0202,0.021,0.0204,0.0344,0.0257,0.026,0.0182,0.0168,0,0,0,0,0]}],[{"header":{"parameterUnit":"m.s-1","parameterCategory":2,"la1":30.2991,"la2":30.254,"lo1":-89.0895,"lo2":-89.0444,"dy":0.0017,"dx":0.0017,"nx":28,"ny":28,"refTime":"2025-07-29T09:00:00:Z","depth":"4","parameterNumber":2,"parameterNumberName":"U-component_of_CURRENTS"},"data":[0,0,0,0,0,0,0,0,0,0,0,0,0,0,0,0,0,0,0,0,0,0,0,0,0,0,0,0,0,0,0,0,0,0,0,0,0,0,0,0,0,0,0,0,0,0,0,0,0,0,0,0,0,0,0,0,0,0,-0.0622,-0.0622,0,-0.0657,-0.0657,-0.0657,-0.0663,-0.0663,-0.0664,-0.0664,-0.0696,-0.0696,-0.0697,0,0,0,0,0,0,0,0,0,0,0,0,0,-0.0593,-0.0593,-0.0621,-0.0622,-0.0623,-0.0657,-0.0657,-0.0657,-0.0663,-0.0664,-0.0664,-0.0664,-0.0695,-0.0696,-0.0697,0,0,0,0,0,0,0,0,0,0,0,0,0,-0.0611,-0.0593,-0.0621,-0.0634,-0.0635,-0.0657,-0.0657,-0.0657,-0.0663,-0.0664,-0.0664,-0.0664,-0.0695,-0.0696,-0.0697,-0.0701,0,0,-0.0701,-0.0701,0,0,0,0,0,0,0,0,-0.061,-0.0611,-0.0631,-0.0633,-0.0635,-0.066,-0.0659,-0.0673,-0.0663,-0.0648,-0.0664,-0.0664,-0.0686,-0.0688,-0.0688,-0.0703,-0.0704,-0.0701,-0.0702,-0.0702,-0.0702,0,0,0,0,0,0,0,-0.0608,-0.061,-0.0631,-0.0632,-0.0634,-0.0649,-0.0651,-0.0661,-0.0662,-0.065,-0.0651,-0.0662,-0.0686,-0.0687,-0.0689,-0.0704,-0.0701,-0.0702,-0.0702,-0.0703,-0.0795,-0.0797,0,0,0,0,0,0,-0.0611,-0.0608,-0.063,-0.0633,-0.0627,-0.065,-0.0652,-0.0648,-0.0662,-0.0666,-0.0662,-0.0662,-0.0685,-0.0688,-0.069,-0.0801,-0.0702,-0.0703,-0.0704,-0.0793,-0.0795,-0.0797,0,0,0,0,0,0,-0.0609,-0.0611,-0.0629,-0.0626,-0.0629,-0.065,-0.0646,-0.0649,-0.0669,-0.0672,-0.0675,-0.0682,-0.0685,-0.0689,-0.0707,-0.0798,-0.0704,-0.0705,-0.0791,-0.0794,-0.0796,-0.0956,0,0,0,0,0,0,-0.0608,-0.061,-0.0612,-0.0625,-0.063,-0.0652,-0.0647,-0.0649,-0.0676,-0.0677,-0.0691,-0.0692,-0.0686,-0.0705,-0.0708,-0.0798,-0.0705,-0.0789,-0.0792,-0.0795,-0.0948,-0.0963,-0.0977,0,0,0,0,0,-0.0607,-0.0607,-0.0612,-0.0615,-0.063,-0.0653,-0.0656,-0.0669,-0.0677,-0.0687,-0.0692,-0.0693,-0.0729,-0.0706,-0.0709,-0.0803,-0.0787,-0.0791,-0.0795,-0.0942,-0.0961,-0.0976,0,0,0,0,0,0,-0.0597,-0.0608,-0.0614,-0.0618,-0.0641,-0.0656,-0.0671,-0.0683,-0.0695,-0.0703,-0.07,-0.0702,-0.0761,-0.074,-0.0715,-0.0834,-0.0766,-0.077,-0.0876,-0.0893,-0.0907,-0.0946,-0.0706,0,0,0,0,0,-0.0597,-0.0599,-0.0618,-0.0626,-0.0639,-0.066,-0.0674,-0.0688,-0.0702,-0.0709,-0.0728,-0.0745,-0.0777,-0.0798,-0.0809,-0.0864,-0.0823,-0.0927,-0.0941,-0.0954,-0.0984,-0.0977,-0.0994,-0.081,-0.081,-0.081,0,0,-0.0597,-0.0605,-0.0607,-0.0625,-0.0644,-0.0678,-0.0668,-0.0701,-0.0739,-0.0711,-0.0771,-0.0792,-0.0796,-0.0865,-0.0892,-0.0864,-0.0978,-0.0959,-0.097,-0.0994,-0.0983,-0.1001,-0.1017,-0.0813,-0.0813,-0.0812,0,0,-0.061,-0.0608,-0.0622,-0.0647,-0.0685,-0.07,-0.0716,-0.0754,-0.0777,-0.0832,-0.0835,-0.0893,-0.0937,-0.0969,-0.0987,-0.1078,-0.1047,-0.1105,-0.1226,-0.1219,-0.1234,-0.1247,-0.1195,-0.1202,-0.1121,-0.1121,-0.1122,0,-0.061,-0.0635,-0.0633,-0.0668,-0.0693,-0.0716,-0.0753,-0.0785,-0.083,-0.0854,-0.0869,-0.0989,-0.099,-0.1092,-0.1147,-0.1118,-0.1096,-0.1167,-0.124,-0.1252,-0.1263,-0.1206,-0.1212,-0.113,-0.1129,-0.1128,-0.1127,0,-0.0637,-0.0675,-0.0692,-0.0738,-0.0757,-0.0799,-0.0837,-0.0877,-0.0923,-0.0961,-0.1077,-0.1121,-0.1202,-0.1229,-0.1231,-0.1344,-0.1295,-0.1252,-0.1203,-0.1292,-0.1224,-0.1228,-0.1141,-0.1138,-0.1136,-0.1134,0,0,-0.0608,-0.0692,-0.0713,-0.0741,-0.0802,-0.0817,-0.0883,-0.0938,-0.0999,-0.1094,-0.1203,-0.1307,-0.1376,-0.1403,-0.1444,-0.1471,-0.1527,-0.1434,-0.143,-0.1393,-0.15,-0.1328,-0.1313,-0.1516,-0.1518,-0.152,-0.1413,0,-0.0642,-0.0726,-0.0753,-0.0829,-0.0863,-0.0895,-0.0959,-0.101,-0.1079,-0.1191,-0.1286,-0.141,-0.1431,-0.153,-0.157,-0.1535,-0.155,-0.1559,-0.141,-0.1405,-0.1251,-0.1317,-0.1527,-0.1415,-0.1416,-0.1416,-0.1417,0,-0.0668,-0.0719,-0.0821,-0.0875,-0.0893,-0.0973,-0.1054,-0.1118,-0.1249,-0.1314,-0.147,-0.1534,-0.1662,-0.1663,-0.1671,-0.1687,-0.1633,-0.1586,-0.1579,-0.1373,-0.1241,-0.1311,-0.1422,-0.1422,-0.1421,-0.1421,-0.1421,0,-0.0662,-0.0751,-0.0838,-0.0869,-0.0956,-0.1029,-0.1097,-0.1198,-0.1251,-0.1456,-0.1514,-0.1662,-0.1739,-0.1744,-0.1673,-0.169,-0.1623,-0.1596,-0.138,-0.1363,-0.148,-0.1466,-0.1593,-0.1593,-0.1594,-0.1594,-0.1594,0,-0.0669,-0.0744,-0.0877,-0.0939,-0.1031,-0.1093,-0.1228,-0.1301,-0.1448,-0.1444,-0.1642,-0.1641,-0.1767,-0.1727,-0.1693,-0.1533,-0.162,-0.1417,-0.1341,-0.1542,-0.1538,-0.1479,-0.1468,-0.159,-0.1591,-0.1592,-0.1592,0,-0.067,-0.0766,-0.0867,-0.1004,-0.1057,-0.1153,-0.1302,-0.1339,-0.1512,-0.1529,-0.1594,-0.1648,-0.1541,-0.1591,-0.1523,-0.1485,-0.1388,-0.1302,-0.1497,-0.143,-0.1131,-0.1129,-0.1067,-0.106,-0.1055,-0.105,-0.1046,0,-0.0675,-0.0753,-0.0925,-0.0966,-0.1065,-0.121,-0.1249,-0.1404,-0.1375,-0.141,-0.1333,-0.1341,-0.1319,-0.1145,-0.12,-0.1154,-0.113,-0.1134,-0.1192,-0.1153,-0.1086,-0.1092,-0.1097,-0.1037,-0.1036,-0.1034,-0.1033,0,-0.0678,-0.0795,-0.0868,-0.0963,-0.104,-0.1054,-0.111,-0.1123,-0.1152,-0.127,-0.1071,-0.1066,-0.0931,-0.0929,-0.094,-0.0887,-0.1189,-0.1076,-0.1088,-0.1142,-0.1116,-0.1056,-0.1068,-0.1013,-0.1016,-0.1018,-0.1019,0,-0.0692,-0.0732,-0.0841,-0.0888,-0.0943,-0.0868,-0.0948,-0.0848,-0.088,-0.0889,-0.0752,-0.0759,-0.0783,-0.0771,-0.0725,-0.0738,-0.0725,-0.0771,-0.0799,-0.0822,-0.0804,-0.0739,-0.0466,0,0,0,0,0,-0.0644,-0.0655,-0.071,-0.0745,-0.0774,-0.0782,-0.0762,-0.0802,-0.0822,-0.0619,-0.0714,-0.0556,-0.0529,-0.0552,-0.0511,-0.0621,-0.0755,-0.0577,-0.0829,-0.0906,-0.0928,-0.0937,0,0,0,0,0,0,-0.0622,-0.0676,-0.0673,-0.0589,-0.0575,-0.0552,-0.0548,-0.0552,-0.046,-0.0499,-0.0479,-0.0517,-0.0503,-0.0521,-0.0492,-0.0503,-0.0652,-0.0596,-0.0594,-0.0893,-0.0913,-0.0931,-0.0948,0,0,0,0,0]},{"header":{"parameterUnit":"m.s-1","parameterCategory":2,"la1":30.2991,"la2":30.254,"lo1":-89.0895,"lo2":-89.0444,"dy":0.0017,"dx":0.0017,"nx":28,"ny":28,"refTime":"2025-07-29T09:00:00:Z","depth":"4","parameterNumber":3,"parameterNumberName":"V-component_of_CURRENTS"},"data":[0,0,0,0,0,0,0,0,0,0,0,0,0,0,0,0,0,0,0,0,0,0,0,0,0,0,0,0,0,0,0,0,0,0,0,0,0,0,0,0,0,0,0,0,0,0,0,0,0,0,0,0,0,0,0,0,0,0,0.0182,0.0182,0,0.0202,0.0202,0.0203,0.027,0.0271,0.0272,0.0273,0.0367,0.0369,0.037,0,0,0,0,0,0,0,0,0,0,0,0,0,0.0237,0.0235,0.0182,0.0182,0.0181,0.0202,0.0203,0.0203,0.027,0.0271,0.0273,0.0274,0.0367,0.0369,0.037,0,0,0,0,0,0,0,0,0,0,0,0,0,0.0234,0.0235,0.0182,0.0215,0.0217,0.0202,0.0203,0.0203,0.027,0.0271,0.0273,0.0275,0.0366,0.0368,0.0371,0.0349,0,0,0.0377,0.0378,0,0,0,0,0,0,0,0,0.0234,0.0232,0.021,0.0212,0.0215,0.0232,0.0256,0.0254,0.0269,0.0254,0.0274,0.0276,0.0325,0.0331,0.0335,0.0353,0.0357,0.0377,0.0379,0.0379,0.038,0,0,0,0,0,0,0,0.0234,0.0232,0.0193,0.0209,0.0213,0.024,0.0242,0.0256,0.0284,0.0255,0.0259,0.0255,0.0328,0.0333,0.0338,0.0359,0.0377,0.0379,0.038,0.0381,0.0407,0.0407,0,0,0,0,0,0,0.022,0.0231,0.0193,0.0194,0.0225,0.0237,0.024,0.0228,0.0282,0.029,0.0253,0.0258,0.0328,0.0335,0.0341,0.0352,0.0379,0.0381,0.0383,0.0408,0.0407,0.0407,0,0,0,0,0,0,0.0221,0.0216,0.0192,0.0211,0.0209,0.0234,0.0221,0.0227,0.024,0.0279,0.029,0.026,0.033,0.0339,0.0352,0.0355,0.0382,0.0384,0.0409,0.0408,0.0407,0.0353,0,0,0,0,0,0,0.0222,0.0216,0.0207,0.0209,0.0208,0.017,0.0219,0.0226,0.0232,0.0239,0.0288,0.0298,0.0332,0.0348,0.0354,0.0359,0.0386,0.0409,0.0408,0.0407,0.0355,0.035,0.0346,0,0,0,0,0,0.0224,0.0192,0.0206,0.0201,0.0192,0.0168,0.0169,0.0197,0.0231,0.0219,0.0259,0.0297,0.0346,0.0349,0.0356,0.0362,0.041,0.0409,0.0407,0.0357,0.0351,0.0346,0,0,0,0,0,0,0.0213,0.0195,0.0211,0.0177,0.0171,0.0178,0.0169,0.0191,0.0212,0.0229,0.028,0.0291,0.031,0.0333,0.0335,0.0366,0.0388,0.0388,0.0348,0.0342,0.0337,0.0343,0.0388,0,0,0,0,0,0.0203,0.0174,0.017,0.0143,0.0138,0.0157,0.0154,0.017,0.0186,0.0198,0.0233,0.0274,0.0306,0.0321,0.0348,0.0352,0.0386,0.0363,0.0358,0.0354,0.0362,0.0414,0.0415,0.0402,0.0403,0.0403,0,0,0.0193,0.0177,0.0165,0.0139,0.0142,0.0124,0.016,0.0146,0.0144,0.0204,0.0216,0.0256,0.0303,0.0318,0.0329,0.0339,0.0369,0.0352,0.0349,0.036,0.0412,0.0414,0.0415,0.0402,0.0402,0.0402,0,0,0.0148,0.0144,0.0108,0.0097,0.0085,0.0094,0.0088,0.0096,0.0114,0.0118,0.0174,0.0208,0.0243,0.0281,0.0307,0.0286,0.0343,0.0302,0.0282,0.0331,0.0332,0.0335,0.0352,0.0357,0.0298,0.0298,0.0298,0,0.0142,0.0098,0.0094,0.006,0.0051,0.0079,0.0053,0.0064,0.0078,0.0087,0.0114,0.0192,0.0228,0.0267,0.027,0.0277,0.031,0.03,0.0326,0.0329,0.0332,0.035,0.0356,0.0295,0.0295,0.0296,0.0296,0,0.0073,0.0048,0.0023,-0.0004,-0.0017,-0.004,-0.0028,-0.0026,0.0006,0.0026,0.0067,0.0126,0.0177,0.0195,0.0231,0.0274,0.029,0.0315,0.0341,0.033,0.0349,0.0356,0.0291,0.0292,0.0293,0.0294,0,0,0.005,-0.0012,-0.001,-0.0036,-0.0049,-0.0071,-0.0077,-0.0078,-0.0082,-0.0032,-0.0017,0.0057,0.0109,0.0142,0.0201,0.0249,0.029,0.0295,0.0299,0.0314,0.0387,0.0276,0.0273,0.0332,0.0333,0.0334,0.0382,0,0.001,-0.0062,-0.0077,-0.0127,-0.0161,-0.0146,-0.0161,-0.0156,-0.0134,-0.0116,-0.0028,0.0016,0.0084,0.0125,0.0183,0.0273,0.0311,0.0274,0.0396,0.0399,0.0304,0.0278,0.0339,0.0387,0.0389,0.039,0.0391,0,-0.0037,-0.0083,-0.0137,-0.0198,-0.0209,-0.0224,-0.0239,-0.025,-0.0219,-0.0193,-0.0123,-0.0056,0.0042,0.0099,0.0249,0.023,0.0305,0.0369,0.0372,0.0298,0.0301,0.0409,0.0404,0.0403,0.0402,0.0401,0.04,0,-0.0049,-0.012,-0.0161,-0.0179,-0.0237,-0.0248,-0.0262,-0.0262,-0.0273,-0.0217,-0.0204,-0.0091,-0.0013,0.0108,0.0244,0.026,0.0391,0.0421,0.0386,0.0378,0.0492,0.049,0.0514,0.0514,0.0514,0.0514,0.0514,0,-0.0087,-0.0123,-0.0166,-0.0192,-0.0247,-0.0268,-0.0307,-0.0309,-0.0301,-0.0309,-0.0221,-0.0195,0.0002,0.0095,0.0218,0.0308,0.0372,0.0374,0.0383,0.0462,0.0456,0.0495,0.0492,0.0516,0.0515,0.0515,0.0515,0,-0.0099,-0.0123,-0.0184,-0.0238,-0.0255,-0.0284,-0.0336,-0.0364,-0.0347,-0.0346,-0.0316,-0.0244,-0.0146,0.0004,0.0184,0.0256,0.0363,0.0378,0.0422,0.0435,0.0323,0.0317,0.0337,0.0334,0.0331,0.0328,0.0326,0,-0.0122,-0.0146,-0.0204,-0.0227,-0.0247,-0.0296,-0.0332,-0.0363,-0.0377,-0.0385,-0.0371,-0.031,-0.0249,-0.0072,0.0057,0.0231,0.0262,0.0325,0.0351,0.0298,0.0306,0.0305,0.0303,0.0321,0.032,0.032,0.0319,0,-0.0162,-0.0157,-0.02,-0.0231,-0.0267,-0.0341,-0.0377,-0.0387,-0.0409,-0.0421,-0.0388,-0.0327,-0.0259,-0.0122,-0.0002,0.013,0.0291,0.0294,0.0303,0.0328,0.028,0.029,0.0291,0.0309,0.031,0.0311,0.0312,0,-0.0173,-0.0194,-0.0206,-0.0229,-0.0278,-0.0319,-0.0372,-0.0381,-0.0405,-0.0388,-0.0397,-0.0331,-0.0286,-0.0182,-0.0074,0.003,0.0061,0.0147,0.0164,0.0176,0.0103,0.0016,-0.0036,0,0,0,0,0,-0.0167,-0.016,-0.0201,-0.0228,-0.027,-0.0272,-0.0362,-0.0404,-0.0428,-0.0394,-0.0383,-0.0325,-0.0227,-0.0205,-0.0117,-0.0149,0.0066,-0.0048,0.0173,0.0251,0.0263,0.0193,0,0,0,0,0,0,-0.0167,-0.0177,-0.0187,-0.0191,-0.0175,-0.0234,-0.0266,-0.0312,-0.029,-0.0305,-0.0251,-0.0265,-0.017,-0.0226,-0.0084,-0.0073,0.008,-0.0016,-0.0014,0.0245,0.0255,0.0265,0.0197,0,0,0,0,0]}]]